Miscellaneous Local Product
Issued by NWS Hastings, NE

Home | Current Version | Previous Version | Graphics & Text | Print | Product List | Glossary On
Versions: 1 2 3 4 5 6 7 8 9 10 11 12 13 14 15 16 17 18 19 20 21 22 23 24 25 26 27 28 29 30 31 32 33 34 35 36 37 38 39 40 41 42 43 44 45 46 47 48 49 50
000
AXUS43 KGID 240902
MISGRI

GID CWA HOURLY WEATHER ROUNDUP
NATIONAL WEATHER SERVICE HASTINGS NE
400 AM CDT FRI MAR 24 2017

NOTE: "FAIR" INDICATES FEW OR NO CLOUDS BELOW 12,000 FEET WITH NO
SIGNIFICANT WEATHER AND/OR OBSTRUCTIONS TO VISIBILITY.

...SOUTH CENTRAL NEBRASKA...

CITY           SKY/WX    TMP DP  RH WIND       PRES   REMARKS
GRAND ISLAND   LGT RAIN  54  54 100 NE12      29.75F
HASTINGS       LGT RAIN  55  52  89 NE9       29.74F
KEARNEY        CLOUDY    54  50  87 NE18      29.72F
ORD            LGT RAIN  50  47  89 N13       29.79R
YORK           CLOUDY    55  55 100 NE12      29.74F
AURORA         DRIZZLE   55  53  95 NE14      29.73F
LEXINGTON      DRIZZLE   53  51  92 NE10      29.75S
HOLDREGE       MOCLDY    53  51  94 NE20      29.69F
HEBRON         CLOUDY    64  52  66 NW10      29.71S

...NEBRASKA PANHANDLE...

CITY           SKY/WX    TMP DP  RH WIND       PRES   REMARKS
CHADRON        CLOUDY    41  37  86 NE8       29.98R
ALLIANCE       CLOUDY    40  37  89 N17G24    29.91R WCI  31
SCOTTSBLUFF    CLOUDY    42  38  85 N15       29.95R
SIDNEY         LGT RAIN  41  39  93 N21G28    29.85R

...WESTERN AND NORTH CENTRAL NEBRASKA...

CITY           SKY/WX    TMP DP  RH WIND       PRES   REMARKS
VALENTINE      CLOUDY    41  36  82 N13       29.89R
AINSWORTH      DRIZZLE   43  42  98 N15       29.88R
ONEILL         CLOUDY    44  43  95 N14       29.84R
BROKEN BOW     LGT RAIN  50  48  93 N16G24    29.78R
IMPERIAL       LGT RAIN  48  46  93 N26G35    29.71F FOG
NORTH PLATTE   LGT RAIN  49  45  86 NE23G29   29.78F FOG
MCCOOK         NOT AVBL

...EASTERN NEBRASKA...

CITY           SKY/WX    TMP DP  RH WIND       PRES   REMARKS
NORFOLK        LGT RAIN  51  49  92 N10       29.75R
SO SIOUX CITY  LGT RAIN  48  47  96 SE9       29.74S FOG
TEKAMAH        LGT RAIN  50  48  93 N8        29.75R
COLUMBUS       CLOUDY    54  52  94 NE5       29.77S
ALBION         RAIN      54  51  90 NW9       29.78R
OMAHA EPPLEY   LGT RAIN  56  51  84 N8        29.75R
OFFUTT AFB     LGT RAIN  61  54  76 N13       29.73R
MILLARD        LGT RAIN  61  58  88 CALM      29.74R
LINCOLN        RAIN      61  54  77 VRB6      29.75R
NEBRASKA CITY  CLOUDY    66  43  43 S12       29.72S
BEATRICE       DRIZZLE   67  51  57 S12       29.71S
FALLS CITY     CLOUDY    66  50  56 S13       29.72F

...NORTHERN KANSAS...

CITY           SKY/WX    TMP DP  RH WIND       PRES   REMARKS
GOODLAND       CLOUDY    51  49  92 NE25G32   29.60F
HILL CITY      MOCLDY    56  55  97 E8        29.62F
NORTON         PTSUNNY   55  50  82 N14G20    29.63F
PHILLIPSBURG   MOCLDY    55  55 100 NE5       29.65S
HAYS             N/A     61  46  57 E6        29.62
RUSSELL        CLOUDY    66  45  46 SE14      29.61S
CONCORDIA      CLOUDY    69  48  47 S22G31    29.65F
SALINA         CLOUDY    70  46  42 S18G28    29.66F
TOPEKA         CLOUDY    68  51  54 S10       29.75F



USA.gov is the U.S. government's official web portal to all federal, state and local government web resources and services.